Kirksville, MO

8:54 PM CST on February 22, 2018 (GMT -0600)
Kirksville Regional

Weather History for KIRK - January, 2014

Change the Weather History Date:

Thursday, January 16, 2014

  Actual Average Record
Temperature  
Mean Temperature 28 °F 26 °F  
Max Temperature 44 °F 35 °F 65 °F (2012)
Min Temperature 11 °F 17 °F -19 °F (1977)
Degree Days  
Heating Degree Days 37 39  
Month to date heating degree days 531 624  
Since 1 July heating degree days 3022 2967  
Cooling Degree Days 0 0  
Month to date cooling degree days 0 0  
Year to date cooling degree days 0 0  
Moisture  
Dew Point 24 °F    
Average Humidity 67    
Maximum Humidity 89    
Minimum Humidity 45    
Precipitation  
Precipitation 0.02 in 0.05 in 1.21 in (2017)
Month to date precipitation 0.70 0.51  
Year to date precipitation 0.70 0.51  
Sea Level Pressure  
Sea Level Pressure 29.80 in    
Wind  
Wind Speed 16 mph (West)    
Max Wind Speed 33 mph    
Max Gust Speed 49 mph    
Visibility 6 miles    
Events Fog , Rain , Snow    
T = Trace of Precipitation, MM = Missing Value Source: NWS Daily Summary

Daily Weather History Graph

Daily Weather History Graph

Search for Another Location

Airport or City:

Trip Planner

Search our weather history database for the weather conditions in past years. The results will help you decide how hot, cold, wet, or windy it might be!

Date:

Astronomy

Jan. 16, 2014 Rise Set
Actual Time 7:29 AM CST 5:10 PM CST
Civil Twilight 7:00 AM CST 5:40 PM CST
Nautical Twilight 6:26 AM CST 6:13 PM CST
Astronomical Twilight 5:54 AM CST 6:45 PM CST
Moon 6:02 PM CST (1/16) 7:23 AM CST (1/16)
Length of Visible Light 10h 39m
Length of Day
9h 40m
Full, 100% of the Moon is Illuminated
Jan 16
Full
Jan 23
Last Quarter
Jan 30
New
Feb 6
First Quarter
Feb 14
Full

Hourly Weather History & Observations

Time (CST) Temp. Windchill Dew Point Humidity Pressure Visibility Wind Dir Wind Speed Gust Speed Precip Events Conditions
12:04 AM 28.9 °F 17.7 °F 15.1 °F 56% 29.80 in 2.5 mi SSW 15.0 mph 21.9 mph 0.00 in Snow Light Snow
12:10 AM 28.0 °F 17.5 °F 17.1 °F 63% 29.80 in 3.0 mi SSW 12.7 mph 21.9 mph 0.00 in Snow Light Snow
12:55 AM 30.0 °F 17.9 °F 19.9 °F 66% 29.79 in 10.0 mi SSW 18.4 mph 25.3 mph 0.00 in   Overcast
1:55 AM 30.0 °F 20.0 °F 19.0 °F 64% 29.78 in 10.0 mi SW 12.7 mph - N/A   Clear
2:55 AM 30.9 °F 21.7 °F 19.9 °F 64% 29.77 in 10.0 mi SW 11.5 mph - N/A   Clear
3:55 AM 33.1 °F 23.0 °F 21.9 °F 64% 29.70 in 10.0 mi SSW 15.0 mph 24.2 mph N/A   Mostly Cloudy
4:55 AM 32.0 °F 23.6 °F 23.0 °F 69% 29.71 in 10.0 mi WSW 10.4 mph - N/A   Partly Cloudy
5:55 AM 33.1 °F 24.9 °F 24.1 °F 70% 29.71 in 10.0 mi WSW 10.4 mph - N/A   Overcast
6:55 AM 33.1 °F 24.9 °F 24.1 °F 70% 29.71 in 10.0 mi West 10.4 mph - N/A   Mostly Cloudy
7:55 AM 34.0 °F 26.6 °F 24.1 °F 67% 29.72 in 10.0 mi West 9.2 mph - N/A   Partly Cloudy
8:55 AM 37.0 °F 29.8 °F 24.1 °F 59% 29.73 in 10.0 mi West 10.4 mph - N/A   Mostly Cloudy
9:55 AM 42.1 °F 32.8 °F 25.0 °F 51% 29.74 in 10.0 mi WNW 21.9 mph 31.1 mph N/A   Overcast
10:55 AM 43.0 °F 33.5 °F 23.0 °F 45% 29.74 in 10.0 mi WNW 24.2 mph 35.7 mph N/A   Mostly Cloudy
11:55 AM 41.0 °F 31.1 °F 21.0 °F 45% 29.73 in 10.0 mi WNW 23.0 mph 40.3 mph N/A   Overcast
12:55 PM 37.9 °F 28.5 °F 24.1 °F 57% 29.75 in 7.0 mi NW 17.3 mph 29.9 mph 0.00 in Rain Light Rain
1:55 PM 37.0 °F 28.9 °F 26.1 °F 65% 29.75 in 10.0 mi West 12.7 mph - 0.00 in   Overcast
2:55 PM 37.0 °F 29.3 °F 26.1 °F 65% 29.76 in 9.0 mi West 11.5 mph 24.2 mph 0.00 in Snow Light Snow
3:12 PM 36.0 °F 27.1 °F 27.0 °F 70% 29.74 in 2.5 mi West 13.8 mph 21.9 mph 0.00 in Snow Light Snow
3:21 PM 36.0 °F 27.5 °F 28.0 °F 73% 29.74 in 4.0 mi West 12.7 mph - 0.00 in Snow Light Snow
3:28 PM 36.0 °F 27.5 °F 28.0 °F 73% 29.74 in 9.0 mi WNW 12.7 mph - 0.00 in   Overcast
3:41 PM 34.0 °F 25.5 °F 28.9 °F 82% 29.73 in 1.8 mi West 11.5 mph - 0.00 in Snow Light Snow
3:47 PM 34.0 °F 26.0 °F 28.9 °F 82% 29.73 in 3.0 mi West 10.4 mph - 0.00 in Snow Light Snow
3:55 PM 34.0 °F 26.6 °F 28.9 °F 82% 29.77 in 9.0 mi West 9.2 mph - 0.00 in   Scattered Clouds
4:55 PM 34.0 °F 26.6 °F 30.0 °F 85% 29.75 in 9.0 mi WSW 9.2 mph - 0.00 in   Overcast
5:41 PM 33.1 °F 20.9 °F 28.9 °F 85% 29.74 in 1.5 mi West 21.9 mph 32.2 mph 0.00 in Snow Light Snow
5:44 PM 33.1 °F 19.1 °F 28.9 °F 85% 29.75 in 0.5 mi WNW 29.9 mph 38.0 mph 0.00 in Fog , Snow Snow
5:47 PM 30.9 °F 16.7 °F 28.9 °F 92% 29.75 in 0.2 mi WNW 27.6 mph 46.0 mph 0.00 in Fog , Snow Heavy Snow
5:55 PM 30.9 °F 19.4 °F 28.0 °F 89% 29.78 in 0.5 mi WNW 17.3 mph 32.2 mph 0.01 in Fog , Snow Light Snow
5:57 PM 30.9 °F 19.8 °F 28.0 °F 89% 29.74 in 1.0 mi West 16.1 mph 32.2 mph 0.00 in Snow Light Snow
5:59 PM 30.9 °F 18.4 °F 27.0 °F 85% 29.74 in 3.0 mi West 20.7 mph 32.2 mph 0.00 in Snow Light Snow
6:55 PM 26.1 °F 8.8 °F 18.0 °F 71% 29.83 in 10.0 mi NW 33.4 mph 49.5 mph 0.00 in   Scattered Clouds
7:55 PM 19.9 °F 3.2 °F 10.0 °F 65% 29.91 in 10.0 mi WNW 23.0 mph 32.2 mph N/A   Overcast
8:47 PM 17.1 °F 0.1 °F - N/A% 29.89 in 1.8 mi NW 20.7 mph 31.1 mph 0.00 in Snow Light Snow
8:55 PM 16.0 °F -0.9 °F - N/A% 29.95 in 0.8 mi NW 19.6 mph 32.2 mph 0.00 in Snow Light Snow
9:02 PM 16.0 °F -0.4 °F - N/A% 29.91 in 0.8 mi NW 18.4 mph 28.8 mph 0.00 in Snow Light Snow
9:21 PM 14.0 °F -2.0 °F - N/A% 29.92 in 1.8 mi NW 16.1 mph 26.5 mph 0.00 in Snow Light Snow
9:42 PM 14.0 °F -3.4 °F - N/A% 29.93 in 2.0 mi NW 19.6 mph 27.6 mph 0.01 in Snow Light Snow
9:51 PM 14.0 °F -3.0 °F - N/A% 29.93 in 3.0 mi NW 18.4 mph 27.6 mph 0.01 in Snow Light Snow
9:55 PM 14.0 °F -0.2 °F - N/A% 29.98 in 2.5 mi WNW 12.7 mph 24.2 mph 0.01 in Snow Light Snow
10:34 PM 12.0 °F -6.5 °F - N/A% 29.94 in 9.0 mi NW 20.7 mph 29.9 mph 0.00 in   Mostly Cloudy
10:43 PM 12.0 °F -6.9 °F - N/A% 29.94 in 10.0 mi NW 21.9 mph 28.8 mph 0.00 in   Mostly Cloudy
10:55 PM 10.9 °F -6.5 °F - N/A% 29.99 in 10.0 mi NNW 17.3 mph 27.6 mph 0.00 in   Mostly Cloudy
11:55 PM 10.9 °F -6.5 °F - N/A% 29.99 in 10.0 mi NW 17.3 mph 25.3 mph 0.00 in   Overcast